{"data":{"norad_id":65879,"epoch":"2026-09-20T22:56:40.011360Z","epoch_age_seconds":66664,"freshness":"FRESH","line1":"1 65879U 25223AB  26263.95601865  .00023650  00000+0  70823-3 0  9996","line2":"2 65879  53.1577 103.5013 0000407 145.8494 214.2535 15.34428839 54158","mean_motion":15.344288389999999,"eccentricity":4.07e-5,"inclination_deg":53.1577,"raan_deg":103.5013,"arg_perigee_deg":145.8494,"mean_anomaly_deg":214.2535,"bstar":0.00070823,"rev_number":5415,"period_min":93.845994248809,"perigee_km":462.33910725485,"apogee_km":462.89594467326,"semimajor_km":6840.7545259641,"source":"CELESTRAK","updated_at":"2026-09-21T09:00:35.753932Z"}}